Content
SEND FEEDBACK

Daily
Averages
Monthly
Summary
Spain

A CORUŅA - DOWNTOWN, SPAIN


Home > Europe > Spain
Elevation: 220 feet     Latitude: 43 22N     Longitude: 008 25W

WEATHER
 
SELECT A DAY
Number of Records: 275,520;   Date Range: 7/1/96 - 11/24/14
 
SHARE

PRINT THIS DATA

[ ← Previous Day ]
WEATHER ALMANAC - APRIL 18, 2013
[ Next Day → ]
[ °C ]   °F
Weather ElementAverageHighLow
Temperature54.8 °F59 °F (3:30 pm)50 °F (6:00 am)
Dewpoint45.1 °F50 °F (12:30 am)42.8 °F (9:30 am)
Humidity70.6 %88 % (6:30 am)59 % (2:00 pm)
Barometer30.35 in30.42 in (11:30 pm)30.27 in (12:30 am)
Wind Speed9.2 mph15 mph (4:00 pm)
Wind Gust19.6 mph (9:30 am)
Weather ElementAverage
Visibility6.2 mi
Wind DirectionSSE (157 °)

Weather ElementTotal
Precipitation---
Heating Degree Days10.5 (Base 65)
Growing Degree Days4.5 (Base 50)
Averaged from 37 records on April 18, 2013
WEATHER CONDITIONS BREAKOUT
WIND DIRECTION BREAKOUT
WEATHER BY HOUR - APRIL 18, 2013
[ °C ]   °F
Local TimeTemperatureDewpointHumidityBarometerVisibilityWind DirectionWind SpeedGust SpeedPrecipitationEventsConditions
12:30 AM55.4 °F50.0 °F82 %30.27 in6.2 miNW (320°)3.5 mphMostly Cloudy
1:00 AM55.4 °F50.0 °F82 %30.27 in6.2 miWNW (300°)3.5 mphMostly Cloudy
6:00 AM50.0 °F46.4 °F87 %30.30 in6.2 miCalmDrizzle
6:30 AM51.8 °F48.2 °F88 %30.30 in6.2 miNW (320°)3.5 mphMostly Cloudy
7:00 AM51.8 °F46.4 °F82 %30.30 in6.2 miVariable2.3 mphPartly Cloudy
7:30 AM50.0 °F46.4 °F87 %30.33 in6.2 miVariable2.3 mphScattered Clouds
8:00 AM51.8 °F46.4 °F82 %30.33 in6.2 miVariable1.2 mphMostly Cloudy
8:30 AM51.8 °F48.2 °F88 %30.33 in6.2 miVariable2.3 mphMostly Cloudy
9:00 AM53.6 °F44.6 °F72 %30.33 in6.2 miVariable2.3 mphScattered Clouds
9:30 AM53.6 °F42.8 °F67 %30.36 in6.2 miNorth (10°)6.9 mph19.6 mphScattered Clouds
10:00 AM55.4 °F44.6 °F67 %30.36 in6.2 miNorth (10°)9.2 mphScattered Clouds
10:30 AM55.4 °F42.8 °F63 %30.36 in6.2 miNNE (20°)9.2 mphScattered Clouds
11:00 AM55.4 °F42.8 °F63 %30.36 in6.2 miNorth (10°)8.1 mphScattered Clouds
11:30 AM57.2 °F44.6 °F63 %30.36 in6.2 miNorth (360°)6.9 mphScattered Clouds
12:30 PM57.2 °F44.6 °F63 %30.36 in6.2 miNorth (360°)10.4 mphScattered Clouds
1:00 PM57.2 °F44.6 °F63 %30.36 in6.2 miNorth (10°)10.4 mphScattered Clouds
1:30 PM57.2 °F46.4 °F67 %30.36 in6.2 miNorth (10°)11.5 mphScattered Clouds
2:00 PM57.2 °F42.8 °F59 %30.39 in6.2 miNorth (360°)12.7 mphScattered Clouds
2:30 PM57.2 °F44.6 °F63 %30.36 in6.2 miNorth (360°)12.7 mphScattered Clouds
3:00 PM57.2 °F44.6 °F63 %30.36 in6.2 miNorth (360°)13.8 mphPartly Cloudy
3:30 PM59.0 °F44.6 °F59 %30.36 in6.2 miNorth (360°)11.5 mphPartly Cloudy
4:00 PM57.2 °F46.4 °F67 %30.36 in6.2 miNorth (10°)15.0 mphPartly Cloudy
4:30 PM57.2 °F44.6 °F63 %30.36 in6.2 miNorth (10°)12.7 mphPartly Cloudy
5:00 PM57.2 °F44.6 °F63 %30.36 in6.2 miNorth (10°)13.8 mphPartly Cloudy
5:30 PM57.2 °F46.4 °F67 %30.36 in6.2 miNorth (360°)13.8 mphPartly Cloudy
6:00 PM55.4 °F44.6 °F67 %30.36 in6.2 miNorth (360°)13.8 mphPartly Cloudy
6:30 PM55.4 °F44.6 °F67 %30.36 in6.2 miNorth (350°)13.8 mphPartly Cloudy
7:00 PM55.4 °F44.6 °F67 %30.36 in6.2 miNorth (360°)13.8 mphPartly Cloudy
7:30 PM55.4 °F44.6 °F67 %30.36 in6.2 miNorth (360°)11.5 mphPartly Cloudy
8:00 PM55.4 °F44.6 °F67 %30.36 in6.2 miNorth (350°)12.7 mphPartly Cloudy
8:30 PM53.6 °F44.6 °F72 %30.36 in6.2 miNorth (360°)11.5 mphPartly Cloudy
9:00 PM53.6 °F44.6 °F72 %30.36 in6.2 miNorth (10°)13.8 mphPartly Cloudy
9:30 PM53.6 °F44.6 °F72 %30.36 in6.2 miNorth (10°)9.2 mphPartly Cloudy
10:00 PM53.6 °F44.6 °F72 %30.39 in6.2 miNNE (20°)11.5 mphPartly Cloudy
10:30 PM51.8 °F44.6 °F76 %30.39 in6.2 miNNE (20°)10.4 mphMostly Cloudy
11:00 PM51.8 °F42.8 °F71 %30.39 in6.2 miNNE (20°)10.4 mphMostly Cloudy
11:30 PM51.8 °F42.8 °F71 %30.42 in6.2 miNNE (30°)6.9 mphPartly Cloudy
Hourly data recorded from LECO, located miles away from A Coruņa - Downtown, Spain







STORIES FROM OUR PARTNERS